Time,TemperatureF,DewpointF,PressureIn,WindDirection,WindDirectionDegrees,WindSpeedMPH,WindSpeedGustMPH,Humidity,HourlyPrecipIn,Conditions,Clouds,dailyrainin,SoftwareType,DateUTC
2013-07-04 00:00:00,77.4,71.1,30.12,WNW,286,2.0,10.0,81,0.00,,---,0.00,VWS V14.01,2013-07-04 04:00:00,
2013-07-04 00:01:00,77.4,71.1,30.12,WSW,256,3.0,5.0,81,0.00,,---,0.00,VWS V14.01,2013-07-04 04:01:00,
2013-07-04 00:06:00,77.4,71.1,30.12,WSW,248,2.0,6.0,81,0.00,,---,0.00,VWS V14.01,2013-07-04 04:06:00,
2013-07-04 00:11:00,77.4,71.1,30.12,WNW,288,2.0,6.0,81,0.00,,---,0.00,VWS V14.01,2013-07-04 04:11:00,
2013-07-04 00:16:00,77.2,70.9,30.12,West,272,1.0,7.0,81,0.00,,---,0.00,VWS V14.01,2013-07-04 04:16:00,
2013-07-04 00:21:00,77.2,70.9,30.12,SW,221,1.0,8.0,81,0.00,,---,0.00,VWS V14.01,2013-07-04 04:21:00,
2013-07-04 00:26:00,77.2,70.9,30.12,West,265,5.0,8.0,81,0.00,,---,0.00,VWS V14.01,2013-07-04 04:26:00,
2013-07-04 00:30:00,77.0,71.1,30.12,West,262,1.0,8.0,82,0.00,,---,0.00,VWS V14.01,2013-07-04 04:30:00,
2013-07-04 00:31:00,77.0,71.1,30.12,WSW,250,1.0,4.0,82,0.00,,---,0.00,VWS V14.01,2013-07-04 04:31:00,
2013-07-04 00:36:00,77.0,71.1,30.12,WSW,250,3.0,6.0,82,0.00,,---,0.00,VWS V14.01,2013-07-04 04:36:00,
2013-07-04 00:41:00,76.8,70.9,30.12,West,267,1.0,6.0,82,0.00,,---,0.00,VWS V14.01,2013-07-04 04:41:00,
2013-07-04 00:46:00,76.7,71.2,30.12,West,271,2.0,9.0,83,0.00,,---,0.00,VWS V14.01,2013-07-04 04:46:00,
2013-07-04 00:51:00,76.7,71.2,30.12,West,267,1.0,9.0,83,0.00,,---,0.00,VWS V14.01,2013-07-04 04:51:00,
2013-07-04 00:56:00,76.7,71.2,30.12,West,271,5.0,9.0,83,0.00,,---,0.00,VWS V14.01,2013-07-04 04:56:00,
2013-07-04 01:00:00,76.7,71.2,30.12,NW,324,1.0,9.0,83,0.00,,---,0.00,VWS V14.01,2013-07-04 05:00:00,
2013-07-04 01:01:00,76.7,71.2,30.12,West,267,3.0,3.0,83,0.00,,---,0.00,VWS V14.01,2013-07-04 05:01:00,
2013-07-04 01:06:00,76.5,71.0,30.12,West,260,0.0,9.0,83,0.00,,---,0.00,VWS V14.01,2013-07-04 05:06:00,
2013-07-04 01:11:00,76.5,71.3,30.12,West,273,2.0,9.0,84,0.00,,---,0.00,VWS V14.01,2013-07-04 05:11:00,
2013-07-04 01:16:00,76.3,71.1,30.12,West,272,4.0,9.0,84,0.00,,---,0.00,VWS V14.01,2013-07-04 05:16:00,
2013-07-04 01:21:00,76.1,70.9,30.12,West,276,0.0,9.0,84,0.00,,---,0.00,VWS V14.01,2013-07-04 05:21:00,
2013-07-04 01:26:00,76.1,71.3,30.12,WNW,294,0.0,9.0,85,0.00,,---,0.00,VWS V14.01,2013-07-04 05:26:00,
2013-07-04 01:30:00,76.0,71.2,30.11,West,270,0.0,9.0,85,0.00,,---,0.00,VWS V14.01,2013-07-04 05:30:00,
2013-07-04 01:31:00,76.0,71.2,30.11,West,279,1.0,4.0,85,0.00,,---,0.00,VWS V14.01,2013-07-04 05:31:00,
2013-07-04 01:36:00,76.0,71.2,30.11,WSW,255,0.0,6.0,85,0.00,,---,0.00,VWS V14.01,2013-07-04 05:36:00,
2013-07-04 01:41:00,75.8,71.0,30.11,WSW,254,1.0,6.0,85,0.00,,---,0.00,VWS V14.01,2013-07-04 05:41:00,
2013-07-04 01:46:00,75.6,71.1,30.11,West,274,0.0,6.0,86,0.00,,---,0.00,VWS V14.01,2013-07-04 05:46:00,
2013-07-04 01:51:00,75.6,71.1,30.11,WSW,257,1.0,6.0,86,0.00,,---,0.00,VWS V14.01,2013-07-04 05:51:00,
2013-07-04 01:56:00,75.6,71.1,30.11,WSW,252,2.0,6.0,86,0.00,,---,0.00,VWS V14.01,2013-07-04 05:56:00,
2013-07-04 02:00:00,75.6,71.1,30.11,West,263,0.0,6.0,86,0.00,,---,0.00,VWS V14.01,2013-07-04 06:00:00,
2013-07-04 02:01:00,75.6,71.1,30.11,WSW,257,1.0,4.0,86,0.00,,---,0.00,VWS V14.01,2013-07-04 06:01:00,
2013-07-04 02:05:00,75.4,71.3,30.11,West,266,0.0,6.0,87,0.00,,---,0.00,VWS V14.01,2013-07-04 06:05:00,
2013-07-04 02:10:00,75.4,71.3,30.11,West,266,0.0,6.0,87,0.00,,---,0.00,VWS V14.01,2013-07-04 06:10:00,
2013-07-04 02:15:00,75.3,71.2,30.11,West,266,0.0,6.0,87,0.00,,---,0.00,VWS V14.01,2013-07-04 06:15:00,
2013-07-04 02:20:00,75.1,71.0,30.11,West,269,0.0,6.0,87,0.00,,---,0.00,VWS V14.01,2013-07-04 06:20:00,
2013-07-04 02:25:00,75.1,71.3,30.11,WNW,285,0.0,6.0,88,0.00,,---,0.00,VWS V14.01,2013-07-04 06:25:00,
2013-07-04 02:30:00,74.9,71.1,30.10,WNW,286,0.0,1.0,88,0.00,,---,0.00,VWS V14.01,2013-07-04 06:30:00,
2013-07-04 02:35:00,74.9,71.1,30.10,WSW,254,0.0,3.0,88,0.00,,---,0.00,VWS V14.01,2013-07-04 06:35:00,
2013-07-04 02:40:00,74.9,71.1,30.10,West,281,0.0,5.0,88,0.00,,---,0.00,VWS V14.01,2013-07-04 06:40:00,
2013-07-04 02:45:00,74.9,71.4,30.10,West,276,0.0,5.0,89,0.00,,---,0.00,VWS V14.01,2013-07-04 06:45:00,
2013-07-04 02:50:00,74.7,71.2,30.10,West,278,0.0,5.0,89,0.00,,---,0.00,VWS V14.01,2013-07-04 06:50:00,
2013-07-04 02:55:00,74.7,71.2,30.10,West,278,0.0,5.0,89,0.00,,---,0.00,VWS V14.01,2013-07-04 06:55:00,
2013-07-04 03:00:00,74.7,71.2,30.10,WNW,283,0.0,5.0,89,0.00,,---,0.00,VWS V14.01,2013-07-04 07:00:00,
2013-07-04 03:01:00,74.7,71.2,30.10,WNW,283,0.0,5.0,89,0.00,,---,0.00,VWS V14.01,2013-07-04 07:01:00,
2013-07-04 03:06:00,74.6,71.2,30.10,West,281,1.0,2.0,89,0.00,,---,0.00,VWS V14.01,2013-07-04 07:06:00,
2013-07-04 03:11:00,74.6,71.5,30.10,West,263,0.0,4.0,90,0.00,,---,0.00,VWS V14.01,2013-07-04 07:11:00,
2013-07-04 03:16:00,74.6,71.5,30.10,West,261,2.0,5.0,90,0.00,,---,0.00,VWS V14.01,2013-07-04 07:16:00,
2013-07-04 03:21:00,74.6,71.5,30.10,West,279,0.0,5.0,90,0.00,,---,0.00,VWS V14.01,2013-07-04 07:21:00,
2013-07-04 03:26:00,74.7,71.6,30.10,WNW,302,0.0,6.0,90,0.00,,---,0.00,VWS V14.01,2013-07-04 07:26:00,
2013-07-04 03:30:00,74.7,71.6,30.10,WSW,242,0.0,6.0,90,0.00,,---,0.00,VWS V14.01,2013-07-04 07:30:00,
2013-07-04 03:31:00,74.7,71.6,30.10,SW,229,0.0,2.0,90,0.00,,---,0.00,VWS V14.01,2013-07-04 07:31:00,
2013-07-04 03:36:00,74.6,71.5,30.10,West,276,0.0,4.0,90,0.00,,---,0.00,VWS V14.01,2013-07-04 07:36:00,
2013-07-04 03:41:00,74.6,71.5,30.10,West,263,1.0,4.0,90,0.00,,---,0.00,VWS V14.01,2013-07-04 07:41:00,
2013-07-04 03:46:00,74.6,71.5,30.10,West,260,2.0,4.0,90,0.00,,---,0.00,VWS V14.01,2013-07-04 07:46:00,
2013-07-04 03:51:00,74.6,71.5,30.10,West,267,2.0,5.0,90,0.00,,---,0.00,VWS V14.01,2013-07-04 07:51:00,
2013-07-04 03:56:00,74.6,71.8,30.10,West,267,0.0,5.0,91,0.00,,---,0.00,VWS V14.01,2013-07-04 07:56:00,
2013-07-04 04:00:00,74.6,71.8,30.10,West,262,1.0,5.0,91,0.00,,---,0.00,VWS V14.01,2013-07-04 08:00:00,
2013-07-04 04:01:00,74.6,71.8,30.10,West,270,1.0,4.0,91,0.00,,---,0.00,VWS V14.01,2013-07-04 08:01:00,
2013-07-04 04:06:00,74.6,71.8,30.10,West,270,0.0,4.0,91,0.00,,---,0.00,VWS V14.01,2013-07-04 08:06:00,
2013-07-04 04:11:00,74.4,71.6,30.10,West,264,0.0,4.0,91,0.00,,---,0.00,VWS V14.01,2013-07-04 08:11:00,
2013-07-04 04:16:00,74.2,71.4,30.10,West,259,0.0,4.0,91,0.00,,---,0.00,VWS V14.01,2013-07-04 08:16:00,
2013-07-04 04:21:00,74.2,71.7,30.10,NW,309,1.0,4.0,92,0.00,,---,0.00,VWS V14.01,2013-07-04 08:21:00,
2013-07-04 04:26:00,74.2,71.7,30.10,West,268,0.0,4.0,92,0.00,,---,0.00,VWS V14.01,2013-07-04 08:26:00,
2013-07-04 04:30:00,74.2,71.7,30.10,West,263,3.0,4.0,92,0.00,,---,0.00,VWS V14.01,2013-07-04 08:30:00,
2013-07-04 04:31:00,74.2,71.7,30.10,West,266,1.0,3.0,92,0.00,,---,0.00,VWS V14.01,2013-07-04 08:31:00,
2013-07-04 04:36:00,74.2,71.7,30.10,WNW,284,1.0,3.0,92,0.00,,---,0.00,VWS V14.01,2013-07-04 08:36:00,
2013-07-04 04:41:00,74.0,71.5,30.10,West,267,2.0,4.0,92,0.00,,---,0.00,VWS V14.01,2013-07-04 08:41:00,
2013-07-04 04:46:00,74.0,71.5,30.10,West,267,0.0,4.0,92,0.00,,---,0.00,VWS V14.01,2013-07-04 08:46:00,
2013-07-04 04:51:00,74.0,71.5,30.10,West,277,1.0,4.0,92,0.00,,---,0.00,VWS V14.01,2013-07-04 08:51:00,
2013-07-04 04:56:00,74.0,71.5,30.10,West,280,0.0,4.0,92,0.00,,---,0.00,VWS V14.01,2013-07-04 08:56:00,
2013-07-04 05:00:00,73.9,71.8,30.10,WNW,294,2.0,5.0,93,0.00,,---,0.00,VWS V14.01,2013-07-04 09:00:00,
2013-07-04 05:01:00,73.9,71.8,30.10,WNW,294,1.0,2.0,93,0.00,,---,0.00,VWS V14.01,2013-07-04 09:01:00,
2013-07-04 05:06:00,73.9,71.8,30.10,WNW,293,0.0,2.0,93,0.00,,---,0.00,VWS V14.01,2013-07-04 09:06:00,
2013-07-04 05:11:00,73.9,71.8,30.10,WNW,295,0.0,4.0,93,0.00,,---,0.00,VWS V14.01,2013-07-04 09:11:00,
2013-07-04 05:16:00,73.9,71.8,30.11,WNW,295,0.0,4.0,93,0.00,,---,0.00,VWS V14.01,2013-07-04 09:16:00,
2013-07-04 05:21:00,73.9,71.8,30.11,West,263,1.0,4.0,93,0.00,,---,0.00,VWS V14.01,2013-07-04 09:21:00,
2013-07-04 05:26:00,73.9,71.8,30.11,West,263,0.0,4.0,93,0.00,,---,0.00,VWS V14.01,2013-07-04 09:26:00,
2013-07-04 05:30:00,73.9,71.8,30.11,WNW,300,0.0,4.0,93,0.00,,---,0.00,VWS V14.01,2013-07-04 09:30:00,
2013-07-04 05:31:00,73.9,71.8,30.11,WNW,300,1.0,1.0,93,0.00,,---,0.00,VWS V14.01,2013-07-04 09:31:00,
2013-07-04 05:36:00,73.9,71.8,30.11,WNW,300,0.0,1.0,93,0.00,,---,0.00,VWS V14.01,2013-07-04 09:36:00,
2013-07-04 05:41:00,73.7,71.6,30.11,WNW,300,0.0,1.0,93,0.00,,---,0.00,VWS V14.01,2013-07-04 09:41:00,
2013-07-04 05:46:00,73.9,71.8,30.11,WNW,300,0.0,2.0,93,0.00,,---,0.00,VWS V14.01,2013-07-04 09:46:00,
2013-07-04 05:51:00,73.9,71.8,30.11,WNW,300,2.0,2.0,93,0.00,,---,0.00,VWS V14.01,2013-07-04 09:51:00,
2013-07-04 05:56:00,73.9,71.8,30.11,WNW,300,0.0,2.0,93,0.00,,---,0.00,VWS V14.01,2013-07-04 09:56:00,
2013-07-04 06:00:00,74.0,71.8,30.12,WNW,300,0.0,3.0,93,0.00,,---,0.00,VWS V14.01,2013-07-04 10:00:00,
2013-07-04 06:01:00,74.0,71.8,30.12,WNW,300,0.0,0.0,93,0.00,,---,0.00,VWS V14.01,2013-07-04 10:01:00,
2013-07-04 06:06:00,74.0,71.8,30.12,WNW,300,0.0,1.0,93,0.00,,---,0.00,VWS V14.01,2013-07-04 10:06:00,
2013-07-04 06:11:00,74.4,72.2,30.12,WNW,300,0.0,1.0,93,0.00,,---,0.00,VWS V14.01,2013-07-04 10:11:00,
2013-07-04 06:16:00,74.6,72.4,30.12,West,259,0.0,3.0,93,0.00,,---,0.00,VWS V14.01,2013-07-04 10:16:00,
2013-07-04 06:21:00,74.7,72.2,30.12,West,259,3.0,3.0,92,0.00,,---,0.00,VWS V14.01,2013-07-04 10:21:00,
2013-07-04 06:26:00,74.9,72.4,30.12,NW,304,1.0,4.0,92,0.00,,---,0.00,VWS V14.01,2013-07-04 10:26:00,
2013-07-04 06:30:00,75.3,72.5,30.12,WNW,303,0.0,4.0,91,0.00,,---,0.00,VWS V14.01,2013-07-04 10:30:00,
2013-07-04 06:31:00,75.3,72.5,30.12,NW,304,1.0,1.0,91,0.00,,---,0.00,VWS V14.01,2013-07-04 10:31:00,
2013-07-04 06:36:00,75.4,72.6,30.12,West,273,0.0,4.0,91,0.00,,---,0.00,VWS V14.01,2013-07-04 10:36:00,
2013-07-04 06:40:00,75.8,72.3,30.12,West,271,0.0,4.0,89,0.00,,---,0.00,VWS V14.01,2013-07-04 10:40:00,
2013-07-04 06:45:00,76.0,72.5,30.12,West,271,0.0,4.0,89,0.00,,---,0.00,VWS V14.01,2013-07-04 10:45:00,
2013-07-04 06:46:00,76.0,72.5,30.12,West,271,0.0,4.0,89,0.00,,---,0.00,VWS V14.01,2013-07-04 10:46:00,
2013-07-04 06:51:00,76.3,72.5,30.12,West,277,0.0,4.0,88,0.00,,---,0.00,VWS V14.01,2013-07-04 10:51:00,
2013-07-04 06:56:00,76.5,72.7,30.12,West,277,0.0,4.0,88,0.00,,---,0.00,VWS V14.01,2013-07-04 10:56:00,
2013-07-04 07:00:00,76.7,72.2,30.12,West,261,3.0,4.0,86,0.00,,---,0.00,VWS V14.01,2013-07-04 11:00:00,
2013-07-04 07:06:00,76.7,72.2,30.12,West,268,1.0,4.0,86,0.00,,---,0.00,VWS V14.01,2013-07-04 11:06:00,
2013-07-04 07:11:00,76.8,71.9,30.12,WNW,294,1.0,5.0,85,0.00,,---,0.00,VWS V14.01,2013-07-04 11:11:00,
2013-07-04 07:15:00,77.0,72.2,30.13,WNW,294,1.0,5.0,85,0.00,,---,0.00,VWS V14.01,2013-07-04 11:15:00,
2013-07-04 07:20:00,77.2,72.3,30.13,WNW,296,0.0,5.0,85,0.00,,---,0.00,VWS V14.01,2013-07-04 11:20:00,
2013-07-04 07:25:00,77.6,72.4,30.13,West,271,0.0,5.0,84,0.00,,---,0.00,VWS V14.01,2013-07-04 11:25:00,
2013-07-04 07:30:00,77.7,72.1,30.13,WNW,284,2.0,2.0,83,0.00,,---,0.00,VWS V14.01,2013-07-04 11:30:00,
2013-07-04 07:35:00,77.9,72.3,30.13,NW,304,1.0,6.0,83,0.00,,---,0.00,VWS V14.01,2013-07-04 11:35:00,
2013-07-04 07:40:00,77.9,72.3,30.13,WNW,300,0.0,6.0,83,0.00,,---,0.00,VWS V14.01,2013-07-04 11:40:00,
2013-07-04 07:45:00,78.1,72.2,30.13,WNW,292,0.0,6.0,82,0.00,,---,0.00,VWS V14.01,2013-07-04 11:45:00,
2013-07-04 07:50:00,78.3,72.0,30.13,WNW,286,0.0,6.0,81,0.00,,---,0.00,VWS V14.01,2013-07-04 11:50:00,
2013-07-04 07:55:00,78.1,71.8,30.13,West,267,5.0,6.0,81,0.00,,---,0.00,VWS V14.01,2013-07-04 11:55:00,
2013-07-04 08:00:00,78.1,71.8,30.13,West,273,4.0,4.0,81,0.00,,---,0.00,VWS V14.01,2013-07-04 12:00:00,
2013-07-04 08:05:00,78.1,71.8,30.13,WNW,291,4.0,4.0,81,0.00,,---,0.00,VWS V14.01,2013-07-04 12:05:00,
2013-07-04 08:10:00,78.5,72.2,30.13,West,279,0.0,5.0,81,0.00,,---,0.00,VWS V14.01,2013-07-04 12:10:00,
2013-07-04 08:15:00,78.6,71.6,30.13,WNW,290,0.0,7.0,79,0.00,,---,0.00,VWS V14.01,2013-07-04 12:15:00,
2013-07-04 08:20:00,78.8,71.7,30.13,WNW,285,4.0,7.0,79,0.00,,---,0.00,VWS V14.01,2013-07-04 12:20:00,
2013-07-04 08:25:00,78.8,71.7,30.13,West,277,3.0,11.0,79,0.00,,---,0.00,VWS V14.01,2013-07-04 12:25:00,
2013-07-04 08:30:00,79.0,71.6,30.13,West,271,1.0,3.0,78,0.00,,---,0.00,VWS V14.01,2013-07-04 12:30:00,
2013-07-04 08:35:00,79.4,71.9,30.13,WNW,299,3.0,5.0,78,0.00,,---,0.00,VWS V14.01,2013-07-04 12:35:00,
2013-07-04 08:40:00,79.4,71.6,30.13,WNW,298,4.0,5.0,77,0.00,,---,0.00,VWS V14.01,2013-07-04 12:40:00,
2013-07-04 08:45:00,79.8,71.6,30.13,WNW,292,2.0,7.0,76,0.00,,---,0.00,VWS V14.01,2013-07-04 12:45:00,
2013-07-04 08:50:00,79.8,71.9,30.13,WNW,287,0.0,7.0,77,0.00,,---,0.00,VWS V14.01,2013-07-04 12:50:00,
2013-07-04 08:55:00,79.9,71.3,30.13,West,280,0.0,7.0,75,0.00,,---,0.00,VWS V14.01,2013-07-04 12:55:00,
2013-07-04 09:00:00,80.3,71.7,30.13,West,260,2.0,4.0,75,0.00,,---,0.00,VWS V14.01,2013-07-04 13:00:00,
2013-07-04 09:05:00,80.7,71.7,30.13,WSW,254,0.0,5.0,74,0.00,,---,0.00,VWS V14.01,2013-07-04 13:05:00,
2013-07-04 09:10:00,80.9,71.4,30.13,WNW,286,4.0,6.0,73,0.00,,---,0.00,VWS V14.01,2013-07-04 13:10:00,
2013-07-04 09:15:00,81.1,71.6,30.13,WNW,290,7.0,7.0,73,0.00,,---,0.00,VWS V14.01,2013-07-04 13:15:00,
2013-07-04 09:20:00,81.2,71.3,30.13,West,267,4.0,10.0,72,0.00,,---,0.00,VWS V14.01,2013-07-04 13:20:00,
2013-07-04 09:25:00,81.6,71.7,30.13,WNW,288,2.0,10.0,72,0.00,,---,0.00,VWS V14.01,2013-07-04 13:25:00,
2013-07-04 09:30:00,81.6,71.7,30.13,WNW,282,4.0,4.0,72,0.00,,---,0.00,VWS V14.01,2013-07-04 13:30:00,
2013-07-04 09:35:00,81.8,71.5,30.13,WNW,289,2.0,9.0,71,0.00,,---,0.00,VWS V14.01,2013-07-04 13:35:00,
2013-07-04 09:40:00,81.8,71.5,30.13,WNW,284,1.0,9.0,71,0.00,,---,0.00,VWS V14.01,2013-07-04 13:40:00,
2013-07-04 09:45:00,82.2,71.9,30.13,West,275,0.0,9.0,71,0.00,,---,0.00,VWS V14.01,2013-07-04 13:45:00,
2013-07-04 09:50:00,82.8,71.6,30.13,WNW,288,1.0,9.0,69,0.00,,---,0.00,VWS V14.01,2013-07-04 13:50:00,
2013-07-04 09:55:00,83.0,71.8,30.13,WNW,287,0.0,10.0,69,0.00,,---,0.00,VWS V14.01,2013-07-04 13:55:00,
2013-07-04 10:00:00,83.0,71.4,30.13,West,273,3.0,4.0,68,0.00,,---,0.00,VWS V14.01,2013-07-04 14:00:00,
2013-07-04 10:05:00,83.2,71.1,30.13,WNW,297,3.0,4.0,67,0.00,,---,0.00,VWS V14.01,2013-07-04 14:05:00,
2013-07-04 10:10:00,82.8,71.2,30.13,West,281,3.0,8.0,68,0.00,,---,0.00,VWS V14.01,2013-07-04 14:10:00,
2013-07-04 10:15:00,83.0,71.4,30.12,West,277,3.0,8.0,68,0.00,,---,0.00,VWS V14.01,2013-07-04 14:15:00,
2013-07-04 10:20:00,83.4,71.3,30.12,West,272,1.0,8.0,67,0.00,,---,0.00,VWS V14.01,2013-07-04 14:20:00,
2013-07-04 10:25:00,84.1,72.0,30.12,WNW,303,1.0,8.0,67,0.00,,---,0.00,VWS V14.01,2013-07-04 14:25:00,
2013-07-04 10:30:00,84.9,72.3,30.12,West,269,0.0,2.0,66,0.00,,---,0.00,VWS V14.01,2013-07-04 14:30:00,
2013-07-04 10:35:00,85.5,72.4,30.12,West,261,2.0,2.0,65,0.00,,---,0.00,VWS V14.01,2013-07-04 14:35:00,
2013-07-04 10:40:00,85.9,73.2,30.12,West,263,1.0,3.0,66,0.00,,---,0.00,VWS V14.01,2013-07-04 14:40:00,
2013-07-04 10:45:00,86.3,72.7,30.12,West,263,0.0,3.0,64,0.00,,---,0.00,VWS V14.01,2013-07-04 14:45:00,
2013-07-04 10:50:00,86.7,73.1,30.12,West,259,2.0,3.0,64,0.00,,---,0.00,VWS V14.01,2013-07-04 14:50:00,
2013-07-04 10:55:00,86.5,72.4,30.12,West,277,1.0,3.0,63,0.00,,---,0.00,VWS V14.01,2013-07-04 14:55:00,
2013-07-04 11:00:00,87.0,72.9,30.12,West,272,1.0,2.0,63,0.00,,---,0.00,VWS V14.01,2013-07-04 15:00:00,
2013-07-04 11:05:00,87.2,73.1,30.12,West,267,0.0,3.0,63,0.00,,---,0.00,VWS V14.01,2013-07-04 15:05:00,
2013-07-04 11:10:00,87.4,72.3,30.12,WSW,256,0.0,3.0,61,0.00,,---,0.00,VWS V14.01,2013-07-04 15:10:00,
2013-07-04 11:15:00,87.2,72.1,30.12,WNW,289,0.0,5.0,61,0.00,,---,0.00,VWS V14.01,2013-07-04 15:15:00,
2013-07-04 11:20:00,87.0,71.4,30.12,WNW,288,2.0,5.0,60,0.00,,---,0.00,VWS V14.01,2013-07-04 15:20:00,
2013-07-04 11:25:00,86.7,72.1,30.12,West,261,0.0,8.0,62,0.00,,---,0.00,VWS V14.01,2013-07-04 15:25:00,
2013-07-04 11:30:00,87.0,71.9,30.12,WSW,251,0.0,0.0,61,0.00,,---,0.00,VWS V14.01,2013-07-04 15:30:00,
2013-07-04 11:35:00,87.2,73.1,30.12,WSW,250,0.0,4.0,63,0.00,,---,0.00,VWS V14.01,2013-07-04 15:35:00,
2013-07-04 11:40:00,87.8,73.2,30.12,West,275,4.0,4.0,62,0.00,,---,0.00,VWS V14.01,2013-07-04 15:40:00,
2013-07-04 11:45:00,87.6,73.0,30.11,West,264,0.0,7.0,62,0.00,,---,0.00,VWS V14.01,2013-07-04 15:45:00,
2013-07-04 11:50:00,88.4,74.2,30.11,NW,306,0.0,7.0,63,0.00,,---,0.00,VWS V14.01,2013-07-04 15:50:00,
2013-07-04 11:55:00,89.7,73.5,30.11,WNW,284,0.0,7.0,59,0.00,,---,0.00,VWS V14.01,2013-07-04 15:55:00,
2013-07-04 12:00:00,89.3,73.1,30.11,SE,142,0.0,7.0,59,0.00,,---,0.00,VWS V14.01,2013-07-04 16:00:00,
2013-07-04 12:05:00,89.7,73.5,30.11,SE,146,2.0,4.0,59,0.00,,---,0.00,VWS V14.01,2013-07-04 16:05:00,
2013-07-04 12:10:00,89.3,73.6,30.11,SE,144,0.0,4.0,60,0.00,,---,0.00,VWS V14.01,2013-07-04 16:10:00,
2013-07-04 12:15:00,89.3,72.6,30.10,SSE,164,0.0,6.0,58,0.00,,---,0.00,VWS V14.01,2013-07-04 16:15:00,
2013-07-04 12:20:00,89.3,73.1,30.10,SW,226,0.0,6.0,59,0.00,,---,0.00,VWS V14.01,2013-07-04 16:20:00,
2013-07-04 12:25:00,89.7,71.9,30.10,WNW,302,1.0,6.0,56,0.00,,---,0.00,VWS V14.01,2013-07-04 16:25:00,
2013-07-04 12:30:00,89.7,70.9,30.10,West,279,3.0,6.0,54,0.00,,---,0.00,VWS V14.01,2013-07-04 16:30:00,
2013-07-04 12:35:00,89.7,71.9,30.10,WNW,286,2.0,3.0,56,0.00,,---,0.00,VWS V14.01,2013-07-04 16:35:00,
2013-07-04 12:40:00,89.7,71.4,30.10,WNW,293,0.0,5.0,55,0.00,,---,0.00,VWS V14.01,2013-07-04 16:40:00,
2013-07-04 12:45:00,90.1,71.8,30.10,West,262,2.0,5.0,55,0.00,,---,0.00,VWS V14.01,2013-07-04 16:45:00,
2013-07-04 12:50:00,90.5,71.6,30.10,West,271,2.0,5.0,54,0.00,,---,0.00,VWS V14.01,2013-07-04 16:50:00,
2013-07-04 12:55:00,90.3,70.9,30.10,West,279,3.0,5.0,53,0.00,,---,0.00,VWS V14.01,2013-07-04 16:55:00,
2013-07-04 13:00:00,90.3,71.4,30.09,WSW,244,4.0,12.0,54,0.00,,---,0.00,VWS V14.01,2013-07-04 17:00:00,
2013-07-04 13:05:00,90.3,71.4,30.09,SW,230,3.0,5.0,54,0.00,,---,0.00,VWS V14.01,2013-07-04 17:05:00,
2013-07-04 13:10:00,90.3,71.4,30.09,West,279,1.0,9.0,54,0.00,,---,0.00,VWS V14.01,2013-07-04 17:10:00,
2013-07-04 13:15:00,90.7,71.2,30.09,WNW,283,5.0,9.0,53,0.00,,---,0.00,VWS V14.01,2013-07-04 17:15:00,
2013-07-04 13:20:00,90.7,71.2,30.09,WSW,242,1.0,9.0,53,0.00,,---,0.00,VWS V14.01,2013-07-04 17:20:00,
2013-07-04 13:25:00,90.7,70.7,30.09,WSW,246,2.0,9.0,52,0.00,,---,0.00,VWS V14.01,2013-07-04 17:25:00,
2013-07-04 13:30:00,91.0,70.9,30.09,WNW,289,0.0,9.0,52,0.00,,---,0.00,VWS V14.01,2013-07-04 17:30:00,
2013-07-04 13:35:00,91.0,70.9,30.09,WNW,302,0.0,3.0,52,0.00,,---,0.00,VWS V14.01,2013-07-04 17:35:00,
2013-07-04 13:40:00,91.2,71.1,30.09,NNW,346,2.0,4.0,52,0.00,,---,0.00,VWS V14.01,2013-07-04 17:40:00,
2013-07-04 13:45:00,91.0,70.9,30.08,West,259,1.0,6.0,52,0.00,,---,0.00,VWS V14.01,2013-07-04 17:45:00,
2013-07-04 13:50:00,91.0,71.5,30.08,WNW,286,5.0,7.0,53,0.00,,---,0.00,VWS V14.01,2013-07-04 17:50:00,
2013-07-04 13:55:00,91.0,71.5,30.08,WNW,303,3.0,7.0,53,0.00,,---,0.00,VWS V14.01,2013-07-04 17:55:00,
2013-07-04 14:00:00,91.0,70.9,30.08,West,281,2.0,7.0,52,0.00,,---,0.00,VWS V14.01,2013-07-04 18:00:00,
2013-07-04 14:05:00,90.7,70.7,30.08,WNW,298,3.0,3.0,52,0.00,,---,0.00,VWS V14.01,2013-07-04 18:05:00,
2013-07-04 14:10:00,91.4,71.9,30.08,WSW,256,0.0,4.0,53,0.00,,---,0.00,VWS V14.01,2013-07-04 18:10:00,
2013-07-04 14:15:00,91.6,72.1,30.08,WSW,254,1.0,4.0,53,0.00,,---,0.00,VWS V14.01,2013-07-04 18:15:00,
2013-07-04 14:20:00,92.1,72.0,30.08,SSW,194,1.0,5.0,52,0.00,,---,0.00,VWS V14.01,2013-07-04 18:20:00,
2013-07-04 14:25:00,92.3,72.7,30.08,WSW,249,4.0,5.0,53,0.00,,---,0.00,VWS V14.01,2013-07-04 18:25:00,
2013-07-04 14:30:00,92.3,71.6,30.07,West,281,0.0,5.0,51,0.00,,---,0.00,VWS V14.01,2013-07-04 18:30:00,
2013-07-04 14:35:00,91.6,72.1,30.07,WNW,299,2.0,7.0,53,0.00,,---,0.00,VWS V14.01,2013-07-04 18:35:00,
2013-07-04 14:40:00,91.6,72.1,30.07,WNW,290,2.0,7.0,53,0.00,,---,0.00,VWS V14.01,2013-07-04 18:40:00,
2013-07-04 14:45:00,91.8,71.1,30.07,West,274,2.0,7.0,51,0.00,,---,0.00,VWS V14.01,2013-07-04 18:45:00,
2013-07-04 14:50:00,91.6,70.9,30.07,West,265,0.0,11.0,51,0.00,,---,0.00,VWS V14.01,2013-07-04 18:50:00,
2013-07-04 14:55:00,91.6,70.9,30.07,WNW,291,2.0,11.0,51,0.00,,---,0.00,VWS V14.01,2013-07-04 18:55:00,
2013-07-04 15:00:00,91.8,70.5,30.07,West,265,1.0,11.0,50,0.00,,---,0.00,VWS V14.01,2013-07-04 19:00:00,
2013-07-04 15:05:00,91.0,70.4,30.07,WNW,288,3.0,10.0,51,0.00,,---,0.00,VWS V14.01,2013-07-04 19:05:00,
2013-07-04 15:10:00,90.7,70.7,30.07,West,271,5.0,10.0,52,0.00,,---,0.00,VWS V14.01,2013-07-04 19:10:00,
2013-07-04 15:15:00,89.9,70.5,30.06,WNW,287,3.0,10.0,53,0.00,,---,0.00,VWS V14.01,2013-07-04 19:15:00,
2013-07-04 15:19:00,90.7,71.2,30.06,WSW,250,1.0,10.0,53,0.00,,---,0.00,VWS V14.01,2013-07-04 19:19:00,
2013-07-04 15:24:00,91.6,70.9,30.06,West,273,1.0,10.0,51,0.00,,---,0.00,VWS V14.01,2013-07-04 19:24:00,
2013-07-04 15:29:00,91.8,69.9,30.06,WNW,286,9.0,10.0,49,0.00,,---,0.00,VWS V14.01,2013-07-04 19:29:00,
2013-07-04 15:30:00,91.6,69.8,30.06,NW,319,5.0,10.0,49,0.00,,---,0.00,VWS V14.01,2013-07-04 19:30:00,
2013-07-04 15:34:00,91.4,71.3,30.06,WNW,289,3.0,5.0,52,0.00,,---,0.00,VWS V14.01,2013-07-04 19:34:00,
2013-07-04 15:39:00,91.2,71.1,30.06,West,259,5.0,6.0,52,0.00,,---,0.00,VWS V14.01,2013-07-04 19:39:00,
2013-07-04 15:44:00,91.0,70.9,30.06,West,267,2.0,9.0,52,0.00,,---,0.00,VWS V14.01,2013-07-04 19:44:00,
2013-07-04 15:49:00,91.4,70.2,30.06,West,260,1.0,9.0,50,0.00,,---,0.00,VWS V14.01,2013-07-04 19:49:00,
2013-07-04 15:54:00,91.6,70.9,30.06,WSW,258,2.0,9.0,51,0.00,,---,0.00,VWS V14.01,2013-07-04 19:54:00,
2013-07-04 15:59:00,91.2,71.1,30.06,WNW,285,0.0,9.0,52,0.00,,---,0.00,VWS V14.01,2013-07-04 19:59:00,
2013-07-04 16:00:00,91.0,70.9,30.06,WNW,285,1.0,9.0,52,0.00,,---,0.00,VWS V14.01,2013-07-04 20:00:00,
2013-07-04 16:04:00,90.5,71.6,30.06,WNW,287,4.0,6.0,54,0.00,,---,0.00,VWS V14.01,2013-07-04 20:04:00,
2013-07-04 16:09:00,91.0,71.5,30.06,West,274,2.0,7.0,53,0.00,,---,0.00,VWS V14.01,2013-07-04 20:09:00,
2013-07-04 16:14:00,91.4,70.7,30.06,West,261,3.0,8.0,51,0.00,,---,0.00,VWS V14.01,2013-07-04 20:14:00,
2013-07-04 16:19:00,91.6,70.9,30.06,West,263,1.0,8.0,51,0.00,,---,0.00,VWS V14.01,2013-07-04 20:19:00,
2013-07-04 16:24:00,91.6,71.5,30.06,SW,233,1.0,8.0,52,0.00,,---,0.00,VWS V14.01,2013-07-04 20:24:00,
2013-07-04 16:29:00,92.1,71.4,30.05,West,261,6.0,8.0,51,0.00,,---,0.00,VWS V14.01,2013-07-04 20:29:00,
2013-07-04 16:30:00,92.1,70.8,30.05,West,266,3.0,8.0,50,0.00,,---,0.00,VWS V14.01,2013-07-04 20:30:00,
2013-07-04 16:34:00,91.8,70.5,30.05,West,279,1.0,3.0,50,0.00,,---,0.00,VWS V14.01,2013-07-04 20:34:00,
2013-07-04 16:39:00,91.8,71.1,30.05,West,279,0.0,4.0,51,0.00,,---,0.00,VWS V14.01,2013-07-04 20:39:00,
2013-07-04 16:44:00,91.8,71.7,30.05,West,281,3.0,6.0,52,0.00,,---,0.00,VWS V14.01,2013-07-04 20:44:00,
2013-07-04 16:49:00,91.6,70.9,30.05,West,265,1.0,10.0,51,0.00,,---,0.00,VWS V14.01,2013-07-04 20:49:00,
2013-07-04 16:54:00,91.0,70.4,30.05,West,279,3.0,10.0,51,0.00,,---,0.00,VWS V14.01,2013-07-04 20:54:00,
2013-07-04 16:59:00,90.1,70.7,30.05,WSW,238,1.0,10.0,53,0.00,,---,0.00,VWS V14.01,2013-07-04 20:59:00,
2013-07-04 17:00:00,90.1,71.2,30.05,WSW,240,1.0,10.0,54,0.00,,---,0.00,VWS V14.01,2013-07-04 21:00:00,
2013-07-04 17:04:00,90.3,70.9,30.05,West,261,3.0,11.0,53,0.00,,---,0.00,VWS V14.01,2013-07-04 21:04:00,
2013-07-04 17:09:00,91.0,70.4,30.05,WSW,257,0.0,11.0,51,0.00,,---,0.00,VWS V14.01,2013-07-04 21:09:00,
2013-07-04 17:14:00,91.2,71.7,30.05,West,265,3.0,11.0,53,0.00,,---,0.00,VWS V14.01,2013-07-04 21:14:00,
2013-07-04 17:19:00,91.0,70.9,30.05,West,273,2.0,11.0,52,0.00,,---,0.00,VWS V14.01,2013-07-04 21:19:00,
2013-07-04 17:24:00,91.2,70.0,30.05,West,269,6.0,11.0,50,0.00,,---,0.00,VWS V14.01,2013-07-04 21:24:00,
2013-07-04 17:29:00,91.0,71.5,30.05,WNW,286,6.0,11.0,53,0.00,,---,0.00,VWS V14.01,2013-07-04 21:29:00,
2013-07-04 17:30:00,91.0,70.9,30.05,WNW,301,2.0,11.0,52,0.00,,---,0.00,VWS V14.01,2013-07-04 21:30:00,
2013-07-04 17:34:00,90.5,71.1,30.05,West,272,2.0,11.0,53,0.00,,---,0.00,VWS V14.01,2013-07-04 21:34:00,
2013-07-04 17:39:00,90.3,70.9,30.05,WNW,296,1.0,11.0,53,0.00,,---,0.00,VWS V14.01,2013-07-04 21:39:00,
2013-07-04 17:44:00,90.5,71.1,30.05,WNW,292,2.0,11.0,53,0.00,,---,0.00,VWS V14.01,2013-07-04 21:44:00,
2013-07-04 17:49:00,90.5,71.1,30.05,West,262,1.0,11.0,53,0.00,,---,0.00,VWS V14.01,2013-07-04 21:49:00,
2013-07-04 17:54:00,90.3,70.9,30.05,West,281,1.0,11.0,53,0.00,,---,0.00,VWS V14.01,2013-07-04 21:54:00,
2013-07-04 17:59:00,90.5,71.6,30.04,West,264,1.0,11.0,54,0.00,,---,0.00,VWS V14.01,2013-07-04 21:59:00,
2013-07-04 18:00:00,90.5,71.6,30.04,WNW,282,2.0,11.0,54,0.00,,---,0.00,VWS V14.01,2013-07-04 22:00:00,
2013-07-04 18:04:00,90.5,71.1,30.04,West,278,2.0,4.0,53,0.00,,---,0.00,VWS V14.01,2013-07-04 22:04:00,
2013-07-04 18:09:00,90.3,70.9,30.04,WNW,282,2.0,5.0,53,0.00,,---,0.00,VWS V14.01,2013-07-04 22:09:00,
2013-07-04 18:14:00,90.3,71.4,30.04,West,259,0.0,5.0,54,0.00,,---,0.00,VWS V14.01,2013-07-04 22:14:00,
2013-07-04 18:19:00,90.3,70.9,30.04,West,273,2.0,13.0,53,0.00,,---,0.00,VWS V14.01,2013-07-04 22:19:00,
2013-07-04 18:24:00,90.3,70.9,30.04,WSW,257,4.0,13.0,53,0.00,,---,0.00,VWS V14.01,2013-07-04 22:24:00,
2013-07-04 18:29:00,90.3,71.4,30.04,West,261,1.0,13.0,54,0.00,,---,0.00,VWS V14.01,2013-07-04 22:29:00,
2013-07-04 18:30:00,90.3,71.4,30.04,West,260,2.0,13.0,54,0.00,,---,0.00,VWS V14.01,2013-07-04 22:30:00,
2013-07-04 18:34:00,89.9,71.6,30.04,West,273,2.0,5.0,55,0.00,,---,0.00,VWS V14.01,2013-07-04 22:34:00,
2013-07-04 18:39:00,89.7,70.9,30.04,West,265,2.0,6.0,54,0.00,,---,0.00,VWS V14.01,2013-07-04 22:39:00,
2013-07-04 18:44:00,89.9,71.0,30.04,NW,321,1.0,10.0,54,0.00,,---,0.00,VWS V14.01,2013-07-04 22:44:00,
2013-07-04 18:49:00,89.7,70.9,30.04,West,271,3.0,10.0,54,0.00,,---,0.00,VWS V14.01,2013-07-04 22:49:00,
2013-07-04 18:54:00,89.7,71.4,30.04,West,272,3.0,10.0,55,0.00,,---,0.00,VWS V14.01,2013-07-04 22:54:00,
2013-07-04 18:59:00,89.5,71.2,30.04,West,261,6.0,10.0,55,0.00,,---,0.00,VWS V14.01,2013-07-04 22:59:00,
2013-07-04 19:00:00,89.3,71.0,30.04,West,259,2.0,10.0,55,0.00,,---,0.00,VWS V14.01,2013-07-04 23:00:00,
2013-07-04 19:04:00,89.0,71.3,30.04,WSW,257,5.0,5.0,56,0.00,,---,0.00,VWS V14.01,2013-07-04 23:04:00,
2013-07-04 19:09:00,88.6,70.9,30.04,NW,326,9.0,9.0,56,0.00,,---,0.00,VWS V14.01,2013-07-04 23:09:00,
2013-07-04 19:14:00,88.4,71.2,30.05,West,267,1.0,9.0,57,0.00,,---,0.00,VWS V14.01,2013-07-04 23:14:00,
2013-07-04 19:19:00,88.4,71.2,30.05,WNW,288,2.0,9.0,57,0.00,,---,0.00,VWS V14.01,2013-07-04 23:19:00,
2013-07-04 19:24:00,88.4,70.7,30.05,WNW,284,1.0,9.0,56,0.00,,---,0.00,VWS V14.01,2013-07-04 23:24:00,
2013-07-04 19:29:00,88.2,71.1,30.05,SW,231,2.0,9.0,57,0.00,,---,0.00,VWS V14.01,2013-07-04 23:29:00,
2013-07-04 19:30:00,88.2,71.6,30.05,WNW,284,0.0,9.0,58,0.00,,---,0.00,VWS V14.01,2013-07-04 23:30:00,
2013-07-04 19:34:00,88.0,71.9,30.05,West,273,0.0,6.0,59,0.00,,---,0.00,VWS V14.01,2013-07-04 23:34:00,
2013-07-04 19:39:00,88.0,71.9,30.05,WSW,244,3.0,6.0,59,0.00,,---,0.00,VWS V14.01,2013-07-04 23:39:00,
2013-07-04 19:44:00,87.8,71.7,30.05,West,273,2.0,6.0,59,0.00,,---,0.00,VWS V14.01,2013-07-04 23:44:00,
2013-07-04 19:49:00,87.6,72.0,30.05,SW,234,4.0,6.0,60,0.00,,---,0.00,VWS V14.01,2013-07-04 23:49:00,
2013-07-04 19:54:00,87.4,72.3,30.05,WSW,252,1.0,9.0,61,0.00,,---,0.00,VWS V14.01,2013-07-04 23:54:00,
2013-07-04 19:59:00,87.4,72.3,30.05,WNW,289,9.0,9.0,61,0.00,,---,0.00,VWS V14.01,2013-07-04 23:59:00,
2013-07-04 20:00:00,87.2,72.1,30.05,West,270,4.0,9.0,61,0.00,,---,0.00,VWS V14.01,2013-07-05 00:00:00,
2013-07-04 20:04:00,87.0,72.4,30.05,WSW,254,2.0,10.0,62,0.00,,---,0.00,VWS V14.01,2013-07-05 00:04:00,
2013-07-04 20:09:00,86.7,72.1,30.05,SW,225,2.0,10.0,62,0.00,,---,0.00,VWS V14.01,2013-07-05 00:09:00,
2013-07-04 20:14:00,86.5,72.4,30.05,WSW,256,2.0,10.0,63,0.00,,---,0.00,VWS V14.01,2013-07-05 00:14:00,
2013-07-04 20:19:00,86.5,72.4,30.05,WSW,240,4.0,10.0,63,0.00,,---,0.00,VWS V14.01,2013-07-05 00:19:00,
2013-07-04 20:24:00,86.3,72.2,30.05,West,273,3.0,10.0,63,0.00,,---,0.00,VWS V14.01,2013-07-05 00:24:00,
2013-07-04 20:29:00,86.1,72.5,30.05,SW,227,0.0,10.0,64,0.00,,---,0.00,VWS V14.01,2013-07-05 00:29:00,
2013-07-04 20:30:00,86.1,72.5,30.06,WNW,284,3.0,10.0,64,0.00,,---,0.00,VWS V14.01,2013-07-05 00:30:00,
2013-07-04 20:34:00,85.9,72.3,30.06,West,269,3.0,10.0,64,0.00,,---,0.00,VWS V14.01,2013-07-05 00:34:00,
2013-07-04 20:39:00,85.5,72.4,30.06,WSW,257,1.0,10.0,65,0.00,,---,0.00,VWS V14.01,2013-07-05 00:39:00,
2013-07-04 20:44:00,85.3,72.7,30.06,SSW,205,0.0,10.0,66,0.00,,---,0.00,VWS V14.01,2013-07-05 00:44:00,
2013-07-04 20:49:00,85.3,72.7,30.06,WNW,290,3.0,10.0,66,0.00,,---,0.00,VWS V14.01,2013-07-05 00:49:00,
2013-07-04 20:54:00,85.3,72.7,30.06,WSW,257,1.0,10.0,66,0.00,,---,0.00,VWS V14.01,2013-07-05 00:54:00,
2013-07-04 20:59:00,85.3,72.7,30.06,WNW,288,2.0,10.0,66,0.00,,---,0.00,VWS V14.01,2013-07-05 00:59:00,
2013-07-04 21:00:00,85.3,72.7,30.06,West,275,0.0,10.0,66,0.00,,---,0.00,VWS V14.01,2013-07-05 01:00:00,
2013-07-04 21:04:00,85.1,72.9,30.06,WSW,252,0.0,11.0,67,0.00,,---,0.00,VWS V14.01,2013-07-05 01:04:00,
2013-07-04 21:09:00,84.9,72.7,30.06,WNW,290,4.0,11.0,67,0.00,,---,0.00,VWS V14.01,2013-07-05 01:09:00,
2013-07-04 21:14:00,84.9,72.7,30.06,WSW,248,1.0,11.0,67,0.00,,---,0.00,VWS V14.01,2013-07-05 01:14:00,
2013-07-04 21:19:00,84.9,73.2,30.06,West,273,4.0,11.0,68,0.00,,---,0.00,VWS V14.01,2013-07-05 01:19:00,
2013-07-04 21:24:00,84.7,73.0,30.06,West,280,0.0,11.0,68,0.00,,---,0.00,VWS V14.01,2013-07-05 01:24:00,
2013-07-04 21:29:00,84.5,72.8,30.06,SW,216,8.0,11.0,68,0.00,,---,0.00,VWS V14.01,2013-07-05 01:29:00,
2013-07-04 21:30:00,84.5,73.2,30.07,SW,236,2.0,11.0,69,0.00,,---,0.00,VWS V14.01,2013-07-05 01:30:00,
2013-07-04 21:34:00,84.5,73.2,30.07,SW,221,3.0,4.0,69,0.00,,---,0.00,VWS V14.01,2013-07-05 01:34:00,
2013-07-04 21:39:00,84.3,73.5,30.07,WSW,251,2.0,7.0,70,0.00,,---,0.00,VWS V14.01,2013-07-05 01:39:00,
2013-07-04 21:44:00,84.1,73.3,30.07,WNW,287,9.0,9.0,70,0.00,,---,0.00,VWS V14.01,2013-07-05 01:44:00,
2013-07-04 21:49:00,84.0,73.6,30.07,West,261,1.0,9.0,71,0.00,,---,0.00,VWS V14.01,2013-07-05 01:49:00,
2013-07-04 21:54:00,83.8,73.4,30.07,SW,225,1.0,9.0,71,0.00,,---,0.00,VWS V14.01,2013-07-05 01:54:00,
2013-07-04 21:59:00,83.6,73.6,30.07,West,273,2.0,9.0,72,0.00,,---,0.00,VWS V14.01,2013-07-05 01:59:00,
2013-07-04 22:00:00,83.4,73.4,30.07,WSW,254,1.0,9.0,72,0.00,,---,0.00,VWS V14.01,2013-07-05 02:00:00,
2013-07-04 22:04:00,83.4,73.4,30.07,SSW,209,2.0,10.0,72,0.00,,---,0.00,VWS V14.01,2013-07-05 02:04:00,
2013-07-04 22:08:00,83.2,73.2,30.07,West,277,11.0,13.0,72,0.00,,---,0.00,VWS V14.01,2013-07-05 02:08:00,
2013-07-04 22:13:00,83.0,73.5,30.07,WNW,282,2.0,13.0,73,0.00,,---,0.00,VWS V14.01,2013-07-05 02:13:00,
2013-07-04 22:18:00,82.8,73.7,30.07,West,262,2.0,13.0,74,0.00,,---,0.00,VWS V14.01,2013-07-05 02:18:00,
2013-07-04 22:23:00,82.8,73.3,30.07,WSW,254,0.0,13.0,73,0.00,,---,0.00,VWS V14.01,2013-07-05 02:23:00,
2013-07-04 22:28:00,82.6,73.5,30.07,WSW,252,6.0,13.0,74,0.00,,---,0.00,VWS V14.01,2013-07-05 02:28:00,
2013-07-04 22:30:00,82.6,73.5,30.07,WNW,283,4.0,13.0,74,0.00,,---,0.00,VWS V14.01,2013-07-05 02:30:00,
2013-07-04 22:33:00,82.6,73.5,30.07,WSW,242,3.0,9.0,74,0.00,,---,0.00,VWS V14.01,2013-07-05 02:33:00,
2013-07-04 22:38:00,82.6,73.5,30.07,SW,236,3.0,10.0,74,0.00,,---,0.00,VWS V14.01,2013-07-05 02:38:00,
2013-07-04 22:43:00,82.2,73.1,30.07,WNW,284,3.0,10.0,74,0.00,,---,0.00,VWS V14.01,2013-07-05 02:43:00,
2013-07-04 22:48:00,81.8,73.1,30.07,West,275,5.0,10.0,75,0.00,,---,0.00,VWS V14.01,2013-07-05 02:48:00,
2013-07-04 22:53:00,81.8,73.5,30.07,WSW,252,2.0,10.0,76,0.00,,---,0.00,VWS V14.01,2013-07-05 02:53:00,
2013-07-04 22:58:00,81.8,73.5,30.07,West,259,3.0,10.0,76,0.00,,---,0.00,VWS V14.01,2013-07-05 02:58:00,
2013-07-04 23:00:00,81.8,73.5,30.07,WSW,238,5.0,10.0,76,0.00,,---,0.00,VWS V14.01,2013-07-05 03:00:00,
2013-07-04 23:03:00,81.6,73.3,30.07,West,273,2.0,11.0,76,0.00,,---,0.00,VWS V14.01,2013-07-05 03:03:00,
2013-07-04 23:08:00,81.6,73.3,30.07,WSW,248,0.0,11.0,76,0.00,,---,0.00,VWS V14.01,2013-07-05 03:08:00,
2013-07-04 23:13:00,81.6,73.3,30.07,West,267,2.0,13.0,76,0.00,,---,0.00,VWS V14.01,2013-07-05 03:13:00,
2013-07-04 23:18:00,81.4,73.1,30.06,West,270,3.0,13.0,76,0.00,,---,0.00,VWS V14.01,2013-07-05 03:18:00,
2013-07-04 23:23:00,81.2,73.3,30.06,SW,221,4.0,13.0,77,0.00,,---,0.00,VWS V14.01,2013-07-05 03:23:00,
2013-07-04 23:28:00,81.2,72.9,30.06,SW,227,3.0,13.0,76,0.00,,---,0.00,VWS V14.01,2013-07-05 03:28:00,
2013-07-04 23:30:00,81.2,72.9,30.06,SW,224,0.0,13.0,76,0.00,,---,0.00,VWS V14.01,2013-07-05 03:30:00,
2013-07-04 23:33:00,81.1,73.2,30.06,West,270,1.0,6.0,77,0.00,,---,0.00,VWS V14.01,2013-07-05 03:33:00,
2013-07-04 23:38:00,81.1,73.2,30.06,WNW,286,2.0,9.0,77,0.00,,---,0.00,VWS V14.01,2013-07-05 03:38:00,
2013-07-04 23:43:00,80.9,73.0,30.06,South,187,1.0,9.0,77,0.00,,---,0.00,VWS V14.01,2013-07-05 03:43:00,
2013-07-04 23:48:00,80.7,72.8,30.06,West,262,4.0,9.0,77,0.00,,---,0.00,VWS V14.01,2013-07-05 03:48:00,
2013-07-04 23:53:00,80.5,73.0,30.06,West,273,2.0,9.0,78,0.00,,---,0.00,VWS V14.01,2013-07-05 03:53:00,
2013-07-04 23:58:00,80.5,73.0,30.06,WNW,284,0.0,12.0,78,0.00,,---,0.00,VWS V14.01,2013-07-05 03:58:00,